SENTINEL-3A

Last updated on Sun Oct 26 2025 00:02:38 GMT+0000 (Coordinated Universal Time)

1 41335U 16011A 25298.49180008 .00000127 00000+0 70571-4 0 9994 2 41335 98.6265 4.2091 0001184 96.4848 263.6467 14.26733173504597
UTC large
Height (km)
Speed (km/s)
/
Latitude / Longitude
Inclination (degrees)
Orbital Period (minutes)
Azimuth
Elevation
Range (km)
Doppler Factor

Next 0 passes for location: London (51.5072 / 0.1276)

Sorry there are no passes over London.